N66HR EDDH-EDLP

Flight info

Callsign N66HR
Flight time 0h 37m
Altitude 15000
Route EDDH/05 IDEK8C IDEKO N850 ROBEG Q208 PAD DCT EDLP/06
Aircraft SF50/L-V/N

Departure

Time 2026-05-06 13:40
Airport Hamburg Helmut Schmidt Airport (EDDH)

Arrival

Time 2026-05-06 14:18
Airport Paderborn Lippstadt Airport (EDLP)
Time Latitude Longitude Altitude Speed Heading
2026-05-06 13:19 53.62711 9.98825 34 ft 0 kts 243°
2026-05-06 13:36 53.62728 9.98828 34 ft 4 kts 36°
2026-05-06 13:36 53.62763 9.98823 34 ft 6 kts 339°
2026-05-06 13:36 53.62801 9.98783 34 ft 6 kts 259°
2026-05-06 13:36 53.62771 9.98715 34 ft 6 kts 232°
2026-05-06 13:37 53.62740 9.98651 34 ft 10 kts 227°
2026-05-06 13:37 53.62691 9.98554 34 ft 10 kts 229°
2026-05-06 13:37 53.62673 9.98458 33 ft 7 kts 307°
2026-05-06 13:37 53.62701 9.98414 33 ft 4 kts 320°
2026-05-06 13:38 53.62709 9.98404 33 ft 0 kts 321°
2026-05-06 13:39 53.62751 9.98358 33 ft 15 kts 346°
2026-05-06 13:39 53.62826 9.98418 34 ft 10 kts 51°
2026-05-06 13:39 53.62866 9.98494 34 ft 9 kts 47°
2026-05-06 13:39 53.63069 9.98900 32 ft 78 kts 50°
2026-05-06 13:40 53.63477 9.99728 321 ft 98 kts 52°
2026-05-06 13:40 53.63950 10.00679 753 ft 115 kts 52°
2026-05-06 13:40 53.64457 10.01725 1355 ft 120 kts 53°
2026-05-06 13:40 53.64995 10.02827 1929 ft 131 kts 50°
2026-05-06 13:41 53.65613 10.04072 2461 ft 147 kts 51°
2026-05-06 13:41 53.66288 10.05439 2981 ft 162 kts 51°
2026-05-06 13:41 53.67028 10.06947 3500 ft 175 kts 51°
2026-05-06 13:41 53.67829 10.08579 4019 ft 187 kts 51°
2026-05-06 13:42 53.68673 10.10305 4533 ft 196 kts 51°
2026-05-06 13:42 53.69819 10.11519 5021 ft 211 kts 11°
2026-05-06 13:42 53.71266 10.10896 5540 ft 229 kts 329°
2026-05-06 13:42 53.72201 10.08706 6066 ft 240 kts 295°
2026-05-06 13:43 53.72910 10.06150 6578 ft 243 kts 298°
2026-05-06 13:43 53.73661 10.03593 7087 ft 245 kts 299°
2026-05-06 13:43 53.74432 10.01009 7600 ft 246 kts 299°
2026-05-06 13:43 53.75074 9.98361 8072 ft 251 kts 278°
2026-05-06 13:44 53.74747 9.95501 8607 ft 252 kts 250°
2026-05-06 13:44 53.74098 9.92752 9115 ft 251 kts 248°
2026-05-06 13:44 53.73425 9.90052 9617 ft 250 kts 248°
2026-05-06 13:44 53.72734 9.87315 9836 ft 261 kts 248°
2026-05-06 13:45 53.72002 9.84421 9865 ft 275 kts 248°
2026-05-06 13:45 53.70451 9.78302 10124 ft 285 kts 248°
2026-05-06 13:45 53.69688 9.75305 10618 ft 276 kts 248°
2026-05-06 13:46 53.68946 9.72391 11108 ft 269 kts 248°
2026-05-06 13:46 53.68213 9.69513 11602 ft 263 kts 248°
2026-05-06 13:46 53.67504 9.66730 12092 ft 259 kts 248°
2026-05-06 13:46 53.66798 9.63970 12589 ft 254 kts 248°
2026-05-06 13:47 53.66106 9.61266 13087 ft 250 kts 250°
2026-05-06 13:47 53.65214 9.58827 13578 ft 250 kts 221°
2026-05-06 13:47 53.63656 9.57748 14057 ft 247 kts 191°
2026-05-06 13:47 53.61969 9.57322 14597 ft 243 kts 188°
2026-05-06 13:48 53.60267 9.56959 14809 ft 251 kts 187°
2026-05-06 13:48 53.58512 9.56615 14871 ft 264 kts 189°
2026-05-06 13:48 53.56632 9.56239 14852 ft 276 kts 188°
2026-05-06 13:48 53.54694 9.55846 14871 ft 284 kts 188°
2026-05-06 13:49 53.52722 9.55461 14864 ft 291 kts 188°
2026-05-06 13:49 53.50701 9.55074 14850 ft 297 kts 187°
2026-05-06 13:49 53.48623 9.54654 14849 ft 298 kts 187°
2026-05-06 13:49 53.46584 9.54250 14853 ft 299 kts 187°
2026-05-06 13:50 53.44519 9.53838 14855 ft 299 kts 187°
2026-05-06 13:50 53.42483 9.53443 14868 ft 297 kts 187°
2026-05-06 13:50 53.40422 9.53044 14854 ft 295 kts 187°
2026-05-06 13:50 53.38390 9.52652 14858 ft 295 kts 188°
2026-05-06 13:51 53.36353 9.52245 14856 ft 294 kts 187°
2026-05-06 13:51 53.34323 9.51843 14866 ft 293 kts 186°
2026-05-06 13:51 53.32293 9.51449 14859 ft 293 kts 187°
2026-05-06 13:51 53.30286 9.51057 14862 ft 293 kts 187°
2026-05-06 13:52 53.28249 9.50656 14861 ft 293 kts 187°
2026-05-06 13:52 53.26242 9.50272 14856 ft 293 kts 187°
2026-05-06 13:52 53.24203 9.49867 14839 ft 293 kts 187°
2026-05-06 13:52 53.22194 9.49479 14830 ft 293 kts 187°
2026-05-06 13:53 53.20183 9.49083 14827 ft 292 kts 186°
2026-05-06 13:53 53.18156 9.48694 14847 ft 292 kts 186°
2026-05-06 13:53 53.16146 9.48301 14835 ft 291 kts 186°
2026-05-06 13:53 53.14140 9.47905 14833 ft 291 kts 187°
2026-05-06 13:54 53.12112 9.47503 14855 ft 291 kts 186°
2026-05-06 13:54 53.10128 9.47128 14832 ft 291 kts 187°
2026-05-06 13:54 53.08102 9.46749 14835 ft 291 kts 186°
2026-05-06 13:54 53.06090 9.46376 14822 ft 291 kts 186°
2026-05-06 13:55 53.04088 9.45969 14830 ft 291 kts 186°
2026-05-06 13:55 53.02089 9.45576 14822 ft 291 kts 186°
2026-05-06 13:55 53.00094 9.45190 14835 ft 291 kts 186°
2026-05-06 13:55 52.98079 9.44766 14827 ft 290 kts 185°
2026-05-06 13:56 52.96089 9.44229 14824 ft 291 kts 195°
2026-05-06 13:56 52.94127 9.43375 14809 ft 290 kts 195°
2026-05-06 13:56 52.92211 9.42518 14815 ft 287 kts 195°
2026-05-06 13:56 52.90284 9.41635 14829 ft 286 kts 195°
2026-05-06 13:57 52.88371 9.40751 14830 ft 285 kts 194°
2026-05-06 13:57 52.86489 9.39875 14829 ft 284 kts 195°
2026-05-06 13:57 52.84596 9.38995 14831 ft 284 kts 195°
2026-05-06 13:57 52.82690 9.38102 14827 ft 284 kts 196°
2026-05-06 13:58 52.80783 9.37219 14816 ft 284 kts 195°
2026-05-06 13:58 52.78896 9.36345 14817 ft 283 kts 195°
2026-05-06 13:58 52.76996 9.35469 14812 ft 282 kts 195°
2026-05-06 13:58 52.75125 9.34593 14824 ft 282 kts 194°
2026-05-06 13:59 52.73242 9.33721 14829 ft 282 kts 194°
2026-05-06 13:59 52.71348 9.32846 14818 ft 282 kts 193°
2026-05-06 13:59 52.69470 9.31982 14818 ft 282 kts 194°
2026-05-06 13:59 52.67590 9.31114 14808 ft 281 kts 195°
2026-05-06 14:00 52.65698 9.30240 14818 ft 281 kts 195°
2026-05-06 14:00 52.63827 9.29376 14813 ft 280 kts 195°
2026-05-06 14:00 52.61964 9.28511 14815 ft 280 kts 195°
2026-05-06 14:00 52.60090 9.27645 14797 ft 279 kts 195°
2026-05-06 14:01 52.58235 9.26797 14835 ft 279 kts 195°
2026-05-06 14:01 52.56370 9.25932 14822 ft 279 kts 195°
2026-05-06 14:01 52.54494 9.25076 14822 ft 278 kts 194°
2026-05-06 14:01 52.52634 9.24216 14806 ft 278 kts 195°
2026-05-06 14:02 52.50764 9.23356 14833 ft 279 kts 195°
2026-05-06 14:02 52.48886 9.22498 14826 ft 280 kts 196°
2026-05-06 14:02 52.47015 9.21641 14823 ft 281 kts 195°
2026-05-06 14:02 52.45145 9.20788 14821 ft 282 kts 195°
2026-05-06 14:03 52.43238 9.19916 14820 ft 283 kts 196°
2026-05-06 14:03 52.41357 9.19062 14823 ft 283 kts 196°
2026-05-06 14:03 52.39452 9.18191 14813 ft 283 kts 195°
2026-05-06 14:03 52.37566 9.17330 14794 ft 283 kts 195°
2026-05-06 14:04 52.35669 9.16462 14810 ft 282 kts 196°
2026-05-06 14:04 52.33794 9.15609 14807 ft 282 kts 195°
2026-05-06 14:04 52.31918 9.14762 14804 ft 283 kts 196°
2026-05-06 14:04 52.30005 9.13898 14801 ft 283 kts 196°
2026-05-06 14:05 52.28123 9.13037 14813 ft 282 kts 195°
2026-05-06 14:05 52.26242 9.12181 14793 ft 280 kts 195°
2026-05-06 14:05 52.24379 9.11335 14794 ft 278 kts 196°
2026-05-06 14:05 52.22529 9.10504 14613 ft 279 kts 195°
2026-05-06 14:06 52.20675 9.09679 14296 ft 275 kts 195°
2026-05-06 14:06 52.18847 9.08852 13915 ft 273 kts 197°
2026-05-06 14:06 52.17024 9.08020 13542 ft 271 kts 198°
2026-05-06 14:06 52.15229 9.07206 13159 ft 270 kts 196°
2026-05-06 14:07 52.13417 9.06395 12772 ft 269 kts 197°
2026-05-06 14:07 52.11623 9.05582 12407 ft 268 kts 196°
2026-05-06 14:07 52.09842 9.04782 12034 ft 268 kts 197°
2026-05-06 14:07 52.08046 9.03973 11656 ft 268 kts 197°
2026-05-06 14:08 52.06257 9.03167 11285 ft 268 kts 197°
2026-05-06 14:08 52.04446 9.02354 10911 ft 269 kts 197°
2026-05-06 14:08 52.02660 9.01554 10539 ft 269 kts 196°
2026-05-06 14:08 52.00862 9.00747 10164 ft 269 kts 196°
2026-05-06 14:09 51.99063 8.99942 9785 ft 269 kts 196°
2026-05-06 14:09 51.97251 8.99131 9407 ft 269 kts 196°
2026-05-06 14:09 51.95463 8.98332 9035 ft 269 kts 196°
2026-05-06 14:09 51.93685 8.97538 8651 ft 264 kts 196°
2026-05-06 14:10 51.91926 8.96753 8264 ft 261 kts 196°
2026-05-06 14:10 51.90190 8.95978 7879 ft 258 kts 196°
2026-05-06 14:10 51.88470 8.95212 7492 ft 256 kts 196°
2026-05-06 14:10 51.86747 8.94445 7115 ft 255 kts 195°
2026-05-06 14:11 51.85045 8.93689 6734 ft 255 kts 195°
2026-05-06 14:11 51.83349 8.92934 6355 ft 254 kts 195°
2026-05-06 14:11 51.81653 8.92180 5977 ft 254 kts 195°
2026-05-06 14:11 51.79941 8.91421 5588 ft 254 kts 195°
2026-05-06 14:12 51.78235 8.90668 5085 ft 258 kts 195°
2026-05-06 14:12 51.76492 8.89892 4579 ft 260 kts 195°
2026-05-06 14:12 51.74770 8.89131 4056 ft 256 kts 195°
2026-05-06 14:12 51.73083 8.88384 3552 ft 250 kts 195°
2026-05-06 14:13 51.71741 8.86861 3090 ft 230 kts 234°
2026-05-06 14:13 51.70861 8.84885 2987 ft 203 kts 238°
2026-05-06 14:13 51.70143 8.83112 2974 ft 179 kts 239°
2026-05-06 14:13 51.69480 8.81475 2977 ft 170 kts 239°
2026-05-06 14:14 51.68844 8.79903 2981 ft 164 kts 239°
2026-05-06 14:14 51.68232 8.78386 2931 ft 163 kts 238°
2026-05-06 14:14 51.67602 8.76832 2727 ft 171 kts 237°
2026-05-06 14:14 51.66935 8.75196 2495 ft 177 kts 239°
2026-05-06 14:15 51.66256 8.73511 2264 ft 183 kts 238°
2026-05-06 14:15 51.65550 8.71782 2017 ft 186 kts 238°
2026-05-06 14:15 51.64876 8.70141 1756 ft 162 kts 240°
2026-05-06 14:15 51.64320 8.68764 1584 ft 129 kts 240°
2026-05-06 14:16 51.63863 8.67633 1387 ft 113 kts 238°
2026-05-06 14:16 51.63448 8.66636 1225 ft 101 kts 238°
2026-05-06 14:16 51.63105 8.65788 1098 ft 82 kts 240°
2026-05-06 14:16 51.62809 8.65059 994 ft 73 kts 241°
2026-05-06 14:17 51.62515 8.64334 928 ft 87 kts 240°
2026-05-06 14:17 51.62149 8.63440 802 ft 99 kts 238°
2026-05-06 14:17 51.61794 8.62591 687 ft 78 kts 239°
2026-05-06 14:17 51.61548 8.61977 695 ft 54 kts 236°
2026-05-06 14:18 51.61363 8.61513 697 ft 44 kts 236°
2026-05-06 14:18 51.61212 8.61169 696 ft 23 kts 231°
2026-05-06 14:18 51.61104 8.61054 700 ft 14 kts 202°
2026-05-06 14:18 51.61022 8.61035 702 ft 9 kts 146°
2026-05-06 14:19 51.60977 8.61185 710 ft 18 kts 102°
2026-05-06 14:19 51.60959 8.61333 714 ft 10 kts 94°
2026-05-06 14:19 51.60989 8.61485 718 ft 12 kts 122°
2026-05-06 14:19 51.60986 8.61581 720 ft 11 kts 57°
2026-05-06 14:20 51.60994 8.61600 720 ft 1 kts 56°
2026-05-06 14:20 51.61003 8.61620 720 ft 1 kts 57°
2026-05-06 14:20 51.61004 8.61623 720 ft 0 kts 57°